Location: Oraville
(37.8651°N, 89.3834°W)
Time: 05:39:50
(UTC+00:00)

Daily predictions for brighter satellites

Satellite Brightness Start Highest point End
(mag) Time Altitude Azimuth Time Altitude Azimuth Time Altitude Azimuth
Cosmos 2221 Rocket 3.6 01:44:39 10° S 01:49:06 81° E 01:53:34 10° N
Okean 2 Rocket 3.2 01:47:54 10° N 01:52:22 63° E 01:56:50 10° SSE
Nadezhda 3 Rocket 4.4 01:49:10 10° SSW 01:55:16 69° W 02:01:26 10° N
Cosmos 2285 Rocket 4.4 01:49:29 10° S 01:55:33 46° ESE 02:01:40 10° NNE
FALCON 9 DEB 4.2 01:53:03 10° S 01:55:55 25° SE 01:58:47 10° ENE
Meteor 1-15 Rocket 4.5 01:51:31 10° N 01:57:29 83° W 02:03:22 10° S
Cosmos 1400 Rocket 2.7 01:54:44 10° N 01:58:36 68° E 02:02:25 10° SSE
Resurs 01 Rocket 2.6 01:56:52 10° SE 02:00:43 31° ENE 02:04:37 10° N
Cosmos 2263 Rocket 2.7 01:55:50 10° N 02:01:18 46° ENE 02:06:45 10° SE
Cosmos 2151 Rocket 3.7 01:57:38 10° N 02:02:00 61° E 02:06:19 10° SSE
Cosmos 2056 Rocket 3.6 01:59:14 10° SSW 02:04:24 86° WNW 02:09:42 10° NNE
IGS 5A 4.4 02:02:08 10° SE 02:05:49 32° ENE 02:09:31 10° N
Cosmos 2227 Rocket 4.3 02:03:33 10° NW 02:08:03 25° WSW 02:12:31 10° SSW
Lacrosse 5 3.2 02:04:18 10° NNW 02:08:48 31° NE 02:13:17 10° E
Cosmos 407 Rocket 3.6 02:07:58 10° NNW 02:13:17 80° WSW 02:18:30 10° SSE
Cosmos 1842 3.4 02:13:43 10° S 02:17:38 77° W 02:21:35 10° N
Cosmos 1339 Rocket 4.5 02:11:46 10° S 02:17:58 79° E 02:24:07 10° N
ERS-2 3.6 02:15:09 10° N 02:18:36 41° WNW 02:22:02 10° SW
Cosmos 1674 Rocket 3.6 02:15:50 10° S 02:20:14 84° W 02:24:39 10° N
Cosmos 1420 Rocket 4.0 02:17:35 10° SSW 02:22:45 88° ESE 02:27:58 10° NNE
Cosmos 1190 Rocket 4.1 02:20:21 10° NNW 02:25:40 84° WSW 02:30:55 10° SSE
MOS 1 4.5 02:20:38 10° S 02:26:19 76° WSW 02:32:03 10° NNW
Cosmos 1766 4.4 02:24:03 10° NNW 02:27:43 43° W 02:31:22 10° SSW
Genesis I 3.6 02:24:00 10° SW 02:27:47 65° WNW 02:31:41 10° NNE
Cosmos 2219 Rocket 4.1 02:29:35 10° E 02:30:03 10° E 02:30:57 10° E
Landsat 7 4.0 02:29:04 14° SSE 02:33:02 60° ENE 02:37:44 10° N
NOSS 3-2 (C) 3.9 02:31:08 10° SW 02:36:33 60° NW 02:42:44 10° NNE
SPOT 3 Rocket 3.6 02:33:59 14° SSE 02:38:20 69° ENE 02:43:30 10° N
ARIANE 5 R/B 4.0 02:36:13 16° ESE 02:38:32 24° ENE 02:42:08 10° NNE
Cosmos 1470 2.7 02:34:56 10° N 02:38:55 76° E 02:41:53 17° SSE
Cosmos 1674 3.6 02:41:23 23° SE 02:42:41 28° E 02:45:55 10° NNE
ATLAS 3B R/B 3.6 02:39:16 16° SSE 02:42:47 25° ESE 02:47:57 10° ENE
CZ-2C R/B 3.8 02:42:35 10° NNE 02:47:22 71° ESE 02:52:06 10° S
SL-16 R/B 2.5 02:44:20 10° SSW 02:49:58 73° WNW 02:55:39 10° NNE
Cosmos 1315 Rocket 2.8 02:46:40 10° N 02:50:50 87° E 02:53:30 21° S
Cosmos 2360 Rocket 2.4 02:45:51 10° S 02:51:15 49° ESE 02:56:40 10° NNE
OBJECT-B 3.9 02:50:46 10° WSW 02:51:33 11° W 02:52:21 10° WNW
Cosmos 2322 Rocket 2.2 02:46:55 10° SSW 02:52:37 89° WNW 02:58:22 10° NNE
Ariane Rocket 4.2 02:51:45 10° SSW 02:56:29 39° W 03:01:14 10° NNW
Cosmos 676 Rocket 4.2 02:53:04 10° NNW 02:58:23 72° WSW 03:02:12 19° S
Cosmos 1954 Rocket 4.3 02:53:53 10° NNW 02:59:11 68° WSW 03:03:00 19° S
Okean 1 Rocket 3.5 02:56:35 10° NNW 03:00:54 60° W 03:04:14 16° S
Cosmos 2227 4.5 02:55:42 10° NNW 03:01:16 65° WSW 03:05:12 20° S
Cosmos 1726 2.7 02:58:20 10° NNW 03:01:53 52° W 03:04:15 19° SSW
Cosmos 1455 Rocket 3.7 02:59:37 10° N 03:03:50 41° E 03:05:24 30° SE
Cosmos 2100 Rocket 4.4 02:59:28 10° N 03:05:38 50° E 03:08:59 26° SE
COSMOS 2428 4.1 03:06:54 19° ESE 03:07:08 20° E 03:11:06 10° NE
Cosmos 1758 3.4 03:05:22 10° NNW 03:09:20 73° W 03:11:21 27° S
Cosmos 2322 4.5 03:08:14 27° SE 03:09:41 31° ESE 03:14:34 10° NE
BREEZE-M DEB (TANK) 4.2 03:07:59 10° NNW 03:10:11 17° NNE 03:11:13 13° NE
Cosmos 1340 4.2 03:10:39 21° E 03:10:39 21° E 03:13:11 10° NE
USA 215 3.6 03:05:00 10° ENE 03:11:03 39° SE 03:17:04 10° SSW
Cosmos 2237 4.2 03:06:32 10° SSW 03:12:14 87° WNW 03:17:58 10° NNE
USA 81 4.1 03:06:57 10° N 03:12:14 81° W 03:15:43 22° S
Cosmos 1908 3.8 03:10:28 10° N 03:14:09 41° E 03:14:50 37° ESE
Lacrosse 5 rocket 0.8 03:11:00 10° SW 03:14:43 72° SE 03:18:20 10° NE
Cosmos 1707 4.4 03:14:33 10° SW 03:18:02 32° WNW 03:21:34 10° NNW
Cosmos 1110 Rocket 3.9 03:15:27 20° S 03:18:59 72° ESE 03:24:10 10° NNE
Cosmos 2173 Rocket 4.1 03:18:32 10° N 03:24:54 67° E 03:27:59 32° SSE
Cosmos 1536 Rocket 4.4 03:26:46 32° E 03:27:00 32° E 03:30:58 10° NNE
Cosmos 2016 Rocket 4.4 03:21:57 10° N 03:27:45 44° ENE 03:29:58 32° SE
SPOT 5 3.0 03:30:02 38° SE 03:31:57 68° ENE 03:36:56 10° N
Cosmos 1844 Rocket 3.0 03:26:39 10° NNW 03:32:14 53° ENE 03:34:17 35° ESE
Meteor 2-5 Rocket 4.3 03:32:04 33° ESE 03:33:08 36° E 03:38:11 10° NNE
Cosmos 1953 2.3 03:32:59 10° N 03:37:04 84° W 03:37:53 55° S
Resurs 01 Rocket 3.7 03:33:54 10° SW 03:37:13 21° W 03:40:34 10° NW
Cosmos 1025 Rocket 2.9 03:37:24 46° S 03:38:40 87° E 03:43:04 10° N
SL-14 R/B 3.5 03:39:12 52° E 03:39:15 52° E 03:43:11 10° NNE
Cosmos 1725 Rocket 4.4 03:33:25 10° N 03:39:22 47° E 03:41:20 36° SE
CARTOSAT-1 3.8 03:39:24 41° SSW 03:40:42 64° W 03:44:59 10° NNW
Terra 2.0 03:41:40 47° ESE 03:42:44 59° ENE 03:47:25 10° N
Cosmos 2263 Rocket 4.0 03:40:31 10° NW 03:44:51 23° W 03:48:33 12° SW
Cosmos 1626 2.1 03:45:06 65° SW 03:45:29 74° W 03:49:10 10° N
Cosmos 2333 4.1 03:45:22 29° SSW 03:48:28 83° ESE 03:54:14 10° NNE
Cosmos 1975 Rocket 4.5 03:46:46 16° SW 03:49:43 34° WNW 03:53:44 10° NNW
Lacrosse 5 2.4 03:47:04 10° NW 03:51:53 45° SW 03:52:53 40° SSW
Cosmos 1802 Rocket 3.9 03:46:34 10° N 03:52:52 87° E 03:55:18 41° S
Cosmos 1850 Rocket 4.4 03:50:20 10° NNW 03:55:31 56° WSW 03:57:07 40° SSW
Cosmos 1461 2.8 03:52:04 10° NNW 03:56:14 71° ENE 03:56:20 70° ENE
Geosat 4.2 03:55:46 46° S 03:57:03 63° WSW 04:02:03 10° NNW
Cosmos 2333 Rocket 2.1 03:56:42 37° SSW 03:59:03 83° ESE 04:04:50 10° NNE
BREEZE-M DEB (TANK) 3.9 03:41:56 10° SW 04:00:24 69° SE 04:04:50 10° ENE
Spot 2 Rocket 4.4 03:58:36 29° SW 04:00:33 40° W 04:05:20 10° NNW
ERS-1 Rocket 3.4 04:04:36 42° SSW 04:05:57 55° W 04:10:55 10° NNW
Cosmos 1459 Rocket 4.4 04:04:16 10° NNW 04:10:08 53° W 04:12:39 32° SSW
ATLAS CENTAUR R/B 2.5 04:06:24 10° NNW 04:10:30 37° NE 04:10:56 36° ENE
SL-8 R/B 4.5 04:07:39 10° NW 04:12:17 47° NNE 04:13:41 36° ENE
Cosmos 2219 Rocket 2.1 04:11:14 45° SSW 04:13:06 88° WNW 04:18:50 10° NNE
ARIANE 5 R/B 4.1 04:13:45 25° WSW 04:14:51 28° W 04:18:42 10° NW
Cosmos 1844 3.6 04:11:16 10° NNW 04:16:52 79° WSW 04:17:50 61° S
Meteor 1-24 Rocket 3.4 04:19:34 68° SSE 04:20:14 80° E 04:25:40 10° N
Meteor 2-10 Rocket 4.0 04:17:23 10° N 04:22:13 44° ENE 04:22:19 44° E
Cosmos 1302 Rocket 4.3 04:23:10 42° SW 04:24:48 64° WNW 04:30:02 10° NNE
Uosat 12 SS-18 rocket 4.1 04:25:29 77° NNE 04:25:29 77° NNE 04:29:54 10° NNE
ATLAS CENTAUR R/B 4.1 04:26:30 25° E 04:26:30 25° E 04:32:02 10° NE
Cosmos 2061 Rocket 4.3 04:21:16 10° NNW 04:27:38 64° W 04:29:35 44° SSW
Cosmos 2237 Rocket 3.2 04:29:30 32° E 04:29:30 32° E 04:33:34 10° NE
Cosmos 1300 3.5 04:27:18 10° NNW 04:30:18 50° NW 04:30:18 50° NW
ATLAS 3B R/B 3.1 04:26:33 10° SW 04:32:56 56° NW 04:39:32 10° NNE
Cosmos 2360 Rocket 4.3 04:31:06 10° WSW 04:35:30 23° NW 04:39:54 10° N
Cosmos 1346 Rocket 3.6 04:41:09 47° NNE 04:41:09 47° NNE 04:44:05 10° N
ALOS 2 4.3 04:41:23 24° ENE 04:41:23 24° ENE 04:44:34 10° NNE
Cosmos 1606 Rocket 4.3 04:37:17 10° N 04:40:57 46° NE 04:40:57 46° NE
Cosmos 1447 Rocket 4.5 04:48:52 59° SSW 04:50:05 78° W 04:56:19 10° N
Cosmos 2233 Rocket 4.0 04:44:16 10° NNW 04:50:23 71° W 04:51:23 60° SSW
COSMOS 2428 3.3 04:48:51 36° WSW 04:50:54 53° WNW 04:56:32 10° NNE
USA 215 3.8 04:47:47 10° NE 04:54:08 56° NW 05:00:29 10° WSW
Lacrosse 5 rocket 4.2 04:52:11 10° WNW 04:54:09 14° NNW 04:56:07 10° N
NOSS 0 Rocket 3.8 04:57:14 72° S 04:57:54 85° ESE 05:04:10 10° NNE
Cosmos 1486 Rocket 4.0 04:57:03 10° NNW 05:02:04 77° NE 05:02:04 77° NE
Cosmos 2278 Rocket 2.6 04:59:46 10° NNW 05:05:18 51° ENE 05:05:45 50° E
Cosmos 1992 Rocket 4.4 05:13:03 55° W 05:13:22 56° WNW 05:18:31 10° N
Cosmos 968 Rocket 3.8 05:08:58 10° NNW 05:13:30 56° W 05:13:30 56° W
Cosmos 1844 Rocket 4.5 05:11:43 10° NW 05:15:37 19° W 05:15:57 19° WSW
GEOS 3 Rocket 3.6 05:20:24 78° W 05:20:24 78° W 05:25:32 10° NW
Terra 4.2 05:20:33 13° W 05:20:49 13° W 05:22:52 10° WNW
USA 267 3.8 05:21:42 28° E 05:24:58 52° NE 05:31:16 10° NW
Cosmos 1464 Rocket 3.9 05:28:18 10° N 05:34:42 89° W 05:35:08 79° S
Okean 1-7 Rocket 4.4 05:35:55 50° N 05:35:55 50° N 05:39:15 10° N
Cosmos 2346 Rocket 4.3 05:37:59 79° SW 05:38:16 82° W 05:44:26 10° N
Cosmos 1980 4.1 05:37:59 53° W 05:38:33 56° WNW 05:44:09 10° NNE
Meteor 2-1 Rocket 4.1 05:33:08 10° N 05:38:25 81° NNE 05:38:25 81° NNE
Cosmos 1607 4.1 05:37:01 10° NNW 05:43:24 67° ENE 05:44:13 61° E
Cosmos 1943 Rocket 4.0 05:43:53 10° N 05:48:05 22° NE 05:50:14 17° E
ATLAS CENTAUR R/B 3.8 05:45:43 10° WNW 05:47:04 16° WNW 05:47:04 16° WNW
Cosmos 1816 Rocket 4.3 05:50:46 85° SSE 05:50:57 88° E 05:57:06 10° N
Cosmos 2058 Rocket 4.3 05:51:38 10° NNW 05:54:38 36° NW 05:54:38 36° NW
USA 32 4.2 06:01:23 10° N 06:06:09 69° NE 06:06:09 69° NE
SL-16 R/B 2.2 06:07:45 76° ENE 06:07:45 76° ENE 06:13:05 10° NNE
GP-B 4.0 06:03:32 10° N 06:06:48 48° NNE 06:06:48 48° NNE
USA 229 DEB 4.1 06:08:35 42° ESE 06:08:35 42° ESE 06:14:21 10° NE
Cosmos 2034 Rocket 3.9 06:02:06 10° NNW 06:08:14 69° W 06:08:22 69° WSW
USA 229 4.1 06:08:42 42° ESE 06:08:42 42° ESE 06:14:26 10° NE
CZ-2D R/B 4.4 06:08:24 10° ENE 06:10:24 12° E 06:10:33 12° E
Cosmos 2237 Rocket 3.5 06:11:17 28° W 06:12:34 31° WNW 06:17:33 10° N
ALOS 2 4.5 06:18:46 22° WNW 06:18:46 22° WNW 06:20:59 10° NW
NOSS 3-1 (C) 3.2 06:18:54 73° ENE 06:18:54 73° ENE 06:24:19 10° NE
Thor Agena Rocket 3.9 06:13:51 10° N 06:18:47 59° WNW 06:18:47 59° WNW
BREEZE-M DEB (TANK) 3.9 06:20:56 63° SSE 06:21:35 66° SE 06:40:27 10° NE
BREEZE M DEB (TANK) 3.7 06:22:37 66° S 06:23:12 70° SE 06:48:54 10° ENE
SJ 16-02 2.4 06:21:23 10° N 06:24:49 42° NE 06:24:49 42° NE
NOSS 3-1 (A) 3.7 06:28:32 48° E 06:28:32 48° E 06:33:28 10° NE
SL-4 R/B 4.1 06:27:29 21° NW 06:27:53 21° NNW 06:30:48 10° NNE
Cosmos 2369 Rocket 4.1 06:23:17 10° N 06:27:54 24° ENE 06:31:21 14° ESE
Tsikada Rocket 4.2 06:28:01 55° W 06:28:27 57° W 06:34:31 10° N
SL-16 R/B 4.5 06:26:24 11° ESE 06:30:39 22° ENE 06:35:09 10° NNE
Cosmos 1763 Rocket 4.3 06:35:28 41° E 06:35:28 41° E 06:39:40 10° NNE
Cosmos 724 4.4 06:34:41 10° NNW 06:40:52 76° ENE 06:41:42 65° ESE
Cosmos 1953 Rocket 4.3 06:46:59 48° NE 06:46:59 48° NE 06:50:23 10° NNE
CZ-4 R/B 4.2 06:42:05 10° NNE 06:46:04 56° ENE 06:46:04 56° ENE
Meteor 1-27 4.0 06:41:44 10° N 06:47:19 85° E 06:47:24 84° ESE
Cosmos 2297 3.5 06:41:50 10° NNW 06:47:30 86° ENE 06:47:36 85° ESE
Cosmos 2278 Rocket 4.0 06:44:55 10° NW 06:47:35 18° W 06:47:35 18° W
Cosmos 1892 4.1 06:53:15 37° N 06:53:15 37° N 06:55:43 10° N
Helios 1A 3.7 06:59:24 52° NE 06:59:24 52° NE 07:02:53 10° N
Helios 1B rocket 4.1 07:03:06 10° NE 07:06:08 26° E 07:06:08 26° E
USA 267 3.8 07:09:00 40° WSW 07:09:00 40° WSW 07:14:09 10° WNW
NOSS 2-3 (D) 4.4 07:08:46 42° NW 07:08:46 42° NW 07:12:50 10° NNE
In-Cosmos 22 Rocket 4.3 07:11:54 60° W 07:12:11 61° W 07:17:41 10° N
Cosmos 841 Rocket 3.8 07:19:57 51° ESE 07:20:18 52° ESE 07:25:17 10° NNE
Cosmos 990 Rocket 3.9 07:16:29 10° NNW 07:21:41 76° ENE 07:22:18 67° SE
Cosmos 540 Rocket 3.5 07:22:33 65° ESE 07:22:47 66° ESE 07:27:51 10° NNE
Cosmos 405 Rocket 3.9 07:24:00 37° NNW 07:24:00 37° NNW 07:26:27 10° N
Cosmos 1943 3.0 07:23:13 71° S 07:23:50 82° ESE 07:29:29 10° NNE
Cosmos 921 Rocket 4.0 07:24:20 37° E 07:24:20 37° E 07:27:59 10° NNE
Cosmos 1898 Rocket 3.7 07:20:52 10° NNW 07:26:04 66° ENE 07:27:17 50° SE
Cosmos 1825 3.2 07:27:43 42° NNW 07:27:43 42° NNW 07:30:23 10° N
Cosmos 1603 3.5 07:28:43 68° SSW 07:29:29 86° WNW 07:35:12 10° NNE
Cosmos 1937 Rocket 4.2 07:25:29 10° N 07:30:41 51° ENE 07:33:00 30° SE
Cosmos 2279 Rocket 4.2 07:25:32 10° NNW 07:31:33 52° W 07:32:20 49° WSW
USA 305 4.0 07:32:36 34° E 07:32:36 34° E 07:35:40 10° ENE
Cosmos 1943 Rocket 2.4 07:26:47 10° NNW 07:31:43 49° W 07:31:43 49° W
NPP 3.7 07:31:04 10° NNE 07:36:27 69° ESE 07:37:30 55° SSE
Resurs 1-4 Rocket 2.0 07:36:12 10° NNE 07:41:32 84° WNW 07:42:25 63° SSW
Cosmos 1076 Rocket 3.7 07:41:45 58° ESE 07:41:55 59° E 07:46:05 10° NNE
Meteor 2-8 Rocket 4.5 07:37:04 10° N 07:43:14 78° E 07:45:34 40° SSE
Cosmos 1814 Rocket 4.3 07:43:19 49° SSE 07:44:18 58° ESE 07:49:25 10° NNE
Cosmos 2151 4.1 07:45:23 31° ESE 07:46:12 34° E 07:50:01 10° NNE
Cosmos 1570 Rocket 4.2 07:45:18 50° SSE 07:46:20 60° ESE 07:51:30 10° NNE
CZ-2D R/B 2.0 07:45:44 10° N 07:50:56 71° WNW 07:51:52 57° SW
Meteor 2-2 Rocket 4.3 07:45:07 10° NNW 07:51:07 70° W 07:52:40 50° SSW
MOZ.5/SAFIR/RUBIN 5/SL-8 4.3 07:51:57 43° W 07:51:57 43° W 07:56:09 10° NNW
SL-16 R/B 4.3 07:49:37 11° W 07:52:11 15° NW 07:55:22 10° NNW
USA 306 3.0 07:53:56 62° ESE 07:53:56 62° ESE 07:57:59 10° NE
X-37B 2.8 07:53:26 20° NNW 07:54:18 23° N 07:56:54 10° NE
NOSS 2-2 (E) 3.3 07:56:15 62° NE 07:56:15 62° NE 07:59:18 10° NE
Cosmos 2221 2.4 07:51:32 10° NNW 07:55:44 69° W 07:55:44 69° W
Meteor 1-29 3.6 07:54:03 10° NNE 07:57:07 48° E 07:57:07 48° E
Cosmos 2208 Rocket 4.3 07:56:29 44° SSE 07:58:01 63° ESE 08:03:25 10° NNE
ADEOS II 2.3 07:53:30 10° NNE 07:58:43 62° ESE 08:00:27 40° SSE
AQUA 3.7 07:54:16 10° NNE 07:59:03 89° W 07:59:56 60° SSW
ARGOS Delta rocket 4.5 07:56:02 10° N 08:01:22 52° WNW 08:02:36 43° WSW
Cosmos 2098 Rocket 3.9 08:00:52 45° SW 08:02:10 54° W 08:07:09 10° N
Nadezhda 4 Rocket 4.3 08:01:44 40° WSW 08:03:20 49° W 08:09:16 10° N
Cosmos 2026 Rocket 4.0 08:02:46 36° S 08:05:29 79° E 08:11:49 10° N
Cosmos 858 Rocket 4.4 08:01:13 10° NNW 08:06:30 78° WSW 08:08:17 42° S
SeaSat 1 3.4 08:03:47 10° NE 08:08:23 39° ESE 08:10:13 28° SSE
NOSS 2-2 (C) 2.9 08:08:55 78° ENE 08:08:55 78° ENE 08:12:15 10° NE
Cosmos 1606 2.5 08:07:05 10° N 08:10:55 75° W 08:10:56 75° W
Cosmos 2369 Rocket 2.5 08:06:41 10° NW 08:12:07 46° WSW 08:13:05 42° SW
SL-16 R/B 2.6 08:11:30 38° SSW 08:13:44 59° WSW 08:19:51 10° NNW
Cosmos 1437 Rocket 3.9 08:10:20 10° NNW 08:12:58 29° WNW 08:12:58 29° WNW
Cosmos 372 Rocket 4.1 08:09:02 10° NNW 08:14:17 73° ENE 08:18:05 19° SSE
USA 290 2.4 08:15:00 71° NNE 08:15:00 71° NNE 08:17:54 10° NNE
Cosmos 1242 Rocket 2.7 08:11:37 10° NNW 08:14:48 56° WNW 08:14:48 56° WNW
Cosmos 2058 4.5 08:17:03 22° WNW 08:17:03 22° WNW 08:20:07 10° NNW
IDEFIX/ARIANE 42P 3.3 08:12:59 10° NNE 08:18:03 48° E 08:20:56 24° SSE
Cosmos 1656 Rocket 3.6 08:12:36 10° NNW 08:18:15 67° WSW 08:20:53 32° S
Cosmos 2263 4.2 08:14:00 10° NNW 08:19:32 56° WSW 08:21:30 37° SSW
Meteor 1-28 Rocket 4.0 08:18:35 26° SE 08:20:26 50° ENE 08:24:08 10° N
USA 281 4.1 08:15:28 10° SE 08:21:43 49° ENE 08:27:59 10° NNW
CZ-4C R/B 4.1 08:19:33 10° SE 08:22:19 16° ESE 08:25:18 10° ENE
GPS 2-04 Rocket1 3.1 08:23:33 43° SSE 08:23:33 43° SSE 08:26:53 10° E
Cosmos 1437 3.3 08:24:23 10° NNW 08:26:23 42° NNW 08:26:23 42° NNW
Meteor 2-15 Rocket 4.4 08:21:37 10° N 08:27:47 79° W 08:31:32 25° S
ATLAS 5 CENTAUR R/B 1.4 08:29:31 49° WSW 08:30:23 66° NW 08:34:36 10° NNE
DELTA 2 R/B (1) 3.6 08:29:13 24° W 08:32:39 82° N 08:38:14 10° ENE
USA 307 3.2 08:34:52 37° WSW 08:36:19 59° NW 08:40:31 10° NE
Cosmos 1932 4.4 08:30:20 10° NW 08:36:25 59° WSW 08:42:14 11° SSE
Cosmos 1633 3.7 08:37:09 28° WNW 08:37:09 28° WNW 08:40:10 10° NNW
Cosmos 1766 Rocket 4.3 08:35:18 20° SSE 08:38:05 50° E 08:42:24 10° NNE
Okean 3 Rocket 4.3 08:36:47 20° SSE 08:39:36 50° E 08:43:50 10° NNE
Landsat 4 4.2 08:36:37 10° N 08:40:14 43° WNW 08:40:58 38° WSW
ADEOS Rocket 3.4 08:35:05 16° S 08:41:20 70° WSW 08:48:15 10° NNW
Aureole 3 Rocket 3.7 08:37:40 10° NNW 08:41:28 40° W 08:42:55 32° SW
Helios 1B rocket 4.0 08:38:32 10° NNW 08:41:39 21° WNW 08:42:26 20° W
Cosmos 2292 Rocket 2.6 08:42:37 57° SSW 08:43:09 79° W 08:46:07 10° N
Cosmos 1151 Rocket 4.0 08:42:35 10° N 08:46:41 45° E 08:50:46 10° SSE
Meteor 2-3 Rocket 3.7 08:44:05 27° SSW 08:47:15 74° W 08:52:51 10° N
IRS-1D 3.8 08:45:17 10° N 08:50:18 54° WNW 08:52:49 27° SW
USA 308 3.6 08:50:01 25° W 08:52:06 44° NW 08:56:12 10° NE
CBERS-1 4.1 08:49:03 10° N 08:54:08 64° WNW 08:57:06 25° SSW
Cosmos 1655 Rocket 4.3 08:48:38 12° S 08:54:21 67° E 09:00:32 10° NNE
IKONOS-2 4.4 08:51:23 14° SSE 08:54:56 89° NE 08:59:10 10° NNW
Alouette 2 Rocket 3.9 08:55:36 10° N 08:59:09 57° E 09:03:23 10° SSE
CZ-4C R/B 2.9 08:57:27 18° SSE 08:59:54 86° WSW 09:03:23 10° NNW
Cosmos 1782 2.9 08:56:46 10° N 09:00:47 78° E 09:04:36 11° S
COSMOS 2441 4.5 08:56:31 10° NNE 09:01:22 76° ESE 09:05:10 16° S
ASTEX 1 3.4 08:57:11 11° S 09:01:57 87° E 09:06:55 10° N
IRS-P3 4.1 08:58:43 10° NNE 09:04:05 88° ESE 09:08:21 16° SSW
MSX 3.8 08:59:52 10° NNE 09:05:39 84° WNW 09:10:21 16° SSW
Lacrosse 4 Rocket 1.2 09:03:39 10° NNW 09:07:44 85° WSW 09:11:45 10° SSE
Meteor 1-26 Rocket 4.3 09:02:45 10° NNW 09:08:35 73° W 09:14:32 10° S
USA 305 4.3 09:08:39 14° W 09:11:40 30° NNW 09:15:27 10° NNE
Cosmos 1812 3.6 09:12:03 10° N 09:15:47 50° E 09:19:30 10° SSE
Chandra Rocket (1) 4.3 09:13:16 16° SW 09:17:05 22° S 09:20:38 10° SE
Cosmos 2298 Rocket 4.0 09:11:54 10° NNW 09:17:13 72° WSW 09:22:30 10° S
Cosmos 1933 4.2 09:14:41 10° NNW 09:18:20 32° W 09:20:30 19° SW
Resurs 1-4 Rocket 4.3 09:19:49 10° NW 09:20:29 10° WNW 09:21:09 10° WNW
Cosmos 1271 Rocket 2.7 09:18:14 10° N 09:21:59 83° E 09:25:44 10° S
Cosmos 2150 Rocket 4.1 09:24:52 10° NNW 09:29:59 58° WSW 09:35:07 10° S
Meteor 2-16 Rocket 4.5 09:24:35 10° SSW 09:30:42 72° W 09:36:50 10° N
X-37B 2.8 09:28:48 10° NW 09:31:34 26° NNE 09:34:18 10° ENE
ERBS 2.2 09:29:30 19° SW 09:31:41 68° NW 09:34:55 10° NE
Centaur AC-125 3.9 09:32:23 11° S 09:33:12 12° SSE 09:34:31 10° SE
ADEOS II 3.9 09:34:46 10° NNW 09:37:50 16° WNW 09:40:55 10° W
CZ-2D R/B 3.5 09:34:08 10° N 09:38:18 68° WNW 09:42:21 10° SSW
Delta 2 Rocket 4.0 09:38:17 14° SW 09:41:07 32° SSE 09:44:21 10° E
CZ-2C R/B 2.6 09:36:17 10° NNE 09:41:16 76° ESE 09:46:03 10° S
Cosmos 1500 Rocket 3.8 09:40:01 10° S 09:44:20 72° E 09:48:39 10° NNE
SeaSat 1 3.8 09:41:38 10° N 09:45:42 26° NW 09:49:45 10° WSW
Cosmos 1125 Rocket 3.7 09:40:52 10° NNW 09:45:57 51° WSW 09:51:02 10° S
S3M 4.2 09:40:14 10° NNW 09:46:08 50° W 09:52:05 10° SSW
Cosmos 1743 Rocket 3.7 09:43:17 10° S 09:47:38 77° E 09:52:02 10° N
ARIANE 5 R/B 3.0 09:44:27 10° N 09:49:09 42° WNW 09:53:49 10° SW
Cosmos 1862 3.8 09:46:02 10° SSW 09:49:52 44° W 09:53:45 10° N
SL-08 R/B 3.4 09:45:37 10° S 09:50:06 52° W 09:54:42 10° NNW
Cosmos 1328 Rocket 4.1 09:47:56 10° NNW 09:51:58 38° W 09:56:01 10° SSW
Cosmos 1656 4.2 09:48:24 10° NNW 09:54:06 66° ENE 09:59:44 10° SSE
Lacrosse 5 rocket 4.2 09:54:03 10° N 09:56:34 17° NE 09:59:07 10° E
IDEFIX/ARIANE 42P 4.2 09:53:33 10° NNW 09:57:14 20° WNW 10:00:53 10° WSW
Cosmos 2084 Rocket 3.4 09:54:58 10° SSW 09:58:52 72° ESE 10:02:49 10° NE
Meteor 2-6 Rocket 4.4 09:53:14 10° NNW 09:59:01 60° W 10:04:39 10° S
GPS 2-04 Rocket1 2.6 09:58:36 10° W 10:02:26 62° S 10:06:06 10° E
deb Kosmos-1763 4.3 09:59:09 10° SSW 10:02:33 50° WNW 10:06:01 10° N
CZ-4B R/B 4.5 09:58:40 10° N 10:03:22 34° WNW 10:08:00 10° SW
FALCON 9 DEB 3.0 10:00:47 10° NW 10:04:09 69° SW 10:07:30 10° SE
Meteor 1-27 Rocket 4.1 09:58:55 10° N 10:04:29 68° E 10:09:58 10° SSE
USA 281 4.0 10:00:46 10° SSW 10:06:20 29° WSW 10:11:55 10° NW
